Погода в Радьковке

Россия / Белгородская область     51°05′52″N   36°57′25″E
темп.,
°C
ветер,
м/с
пор.,
м/с
влажн.,
%
обл.,
%
осадки,
мм/ч
давл.,
гПа
погр.,
м
20 января, ср
ср2000:00−21сз239743 0.0 102124
03:00−22сз339721 0.0 102252
06:00−22зсз23971 0.0 102337
09:00−21зсз22970 0.0 102424
12:00−17зсз23940 0.0 1026151
15:00−16з23959 0.0 1025191
18:00−18з22960 0.0 102720
21:00−19зюз22960 0.0 102720
21 января, чт
чт2100:00−19юз23960 0.0 102820
03:00−19юз33960 0.0 102845
06:00−19ююз36970 0.0 102891
09:00−18ююз479611 0.0 1028134
12:00−14ююз699062 0.0 1026251
15:00−11ююз7148864 0.0 1024366
18:00−9ююз81494100 0.1 1022410
21:00−4юз81495100 0.3 1021626
22 января, пт
пт2200:00−2зюз71396100 0.1 1020618
03:00−1юз61294100 0.1 1020603
06:00−1юз51195100 0.0 1019505
09:00−1юз51195100 0.0 1020431
12:000юз61096100 0.0 1019572
15:00+1ююз61297100 0.0 1018543
18:00+1юз7129799 0.0 1017519
21:00+1ююз71397100 0.0 1018530
23 января, сб
сб2300:00+1ююз71297100 0.0 1017496
03:00+1ююз61396100 0.0 1017477
06:00+1ююз51297100 0.0 1016453
09:00+1ююз61298100 0.0 1016404
12:00+2ююз613100100 0.0 1016388
15:00+2ююз61399100 0.0 1015374
18:00+2ююз51299100 0.0 1015317
21:00+2ю51198100 0.0 1015279
24 января, вс
вс2400:00+1ю51299100 0.0 1015315
03:00+2ю61399100 0.0 1014302
06:00+2ю61398100 0.0 1014365
09:00+2ю61595100 0.0 1014377
12:00+2ю71693100 0.0 1014390
15:00+3ю71686100 0.3 1013500
18:00+2ю71678100 0.0 1014499
21:00+2ю71590100 0.7 1013452